{"data":{"norad_id":61560,"intl_designator":"2024-185J","name":"QIANFAN-27","alt_names":[],"object_type":"PAYLOAD","status":"ACTIVE","operator":null,"country":"PRC","launch_date":"2024-10-15","launch_site_code":"TAISC","launch_vehicle":null,"mission":null,"orbit_class":"UNKNOWN","rcs_meters":null,"size_class":null,"mass_kg":null,"dimensions":null,"purposes":[],"wikipedia_slug":null,"has_3d_model":false,"image_url":null,"decayed_at":null,"tle_current":{"epoch":"2026-05-25T01:59:02.838336Z","epoch_age_seconds":61940,"freshness":"FRESH","line1":"1 61560U 24185J   26145.08267174  .00000326  00000+0  12648-3 0  9995","line2":"2 61560  88.9837  57.7835 0009644 106.0489 254.1768 14.27516765 93468","mean_motion":14.27516765,"eccentricity":0.0009644,"inclination_deg":88.9837,"raan_deg":57.7835,"arg_perigee_deg":106.0489,"mean_anomaly_deg":254.1768,"bstar":0.00012648,"rev_number":9346,"period_min":100.87447204166,"perigee_km":793.12066988444,"apogee_km":806.96594406053,"semimajor_km":7178.1803069725,"source":"CELESTRAK","updated_at":"2026-05-25T13:38:02.414584Z"}}}